Location: Kampong Paya Jaras Dalam
(3.1833°N, 101.5500°E)
Time: 04:42:14
(UTC+00:00)

GPS 2-17 Rocket1 - Pass Details

Date: 15 May 2026
Orbit: 544 x 613 km, 20.3° (Epoch: 7 June)

Event Time Altitude Azimuth Distance (km) Brightness Sun altitude
Rises 12:06:05 0° 234° (SW) 2,694 6.8 -12.1°
Reaches altitude 10° 12:08:30 10° 224° (SW) 1,808 5.8 -12.7°
Maximum altitude 12:12:20 34° 158° (SSE) 914 3.6 -13.6°
Enters shadow 12:14:11 23° 112° (ESE) 1,192 3.9 -14.0°
